"startDT [UTC]","vpos","CH4 [ppm]","stdev(CH4) [ppm]","CO2 [ppm]","stdev(CO2) [ppm]","H2O [ppm]","stdev(H2O)","p_LGR [torr]","T_LGR [C]","mt1_LGR [us]","mt2_LGR [us]","T_ECpre [C]","T_EC1 [C]","T_EC2 [C]","p_inlet [hPa]","p_in [hPa]","p_out [hPa]","T_inlet [C]","RH_inlet [%]","dwpt_inlet [C]","T_vent [C]","RH_vent [%]","dwpt_vent [C]","flow_vent [l min-1]","flow_inlet [l min-1]","dwpt_sample [C]","T_room [C]"
2013-01-03 00:00:00,0.0,1.9485,0.0008,405.28,0.27,-1.0,0.0,138.14,27.02,24.62,36.32,0.04,-272.76,-272.75,-42,546,-941,21.2,0.9,-38.5,21.3,0.9,-38.0,5.73,2.41,-35.4,26.5
2013-01-03 00:01:00,0.0,1.9487,0.0010,405.29,0.28,-1.0,0.0,138.14,27.02,24.62,36.31,0.04,-272.75,-272.75,-42,546,-941,21.2,0.9,-38.4,21.3,0.9,-38.0,5.73,2.39,-35.4,26.5
2013-01-03 00:02:00,0.0,1.9497,0.0011,405.43,0.26,-1.0,0.0,138.14,27.02,24.62,36.30,0.04,-272.74,-272.75,-42,546,-942,21.2,0.9,-38.1,21.3,0.9,-37.8,5.73,2.42,-35.4,26.5
2013-01-03 00:03:00,0.0,1.9492,0.0009,405.36,0.22,-1.0,0.0,138.14,27.02,24.62,36.31,0.04,-272.75,-272.75,-42,546,-941,21.2,0.9,-38.3,21.3,0.9,-37.8,5.73,2.48,-35.4,26.5
2013-01-03 00:04:00,0.0,1.9500,0.0011,405.33,0.25,-1.0,0.0,138.14,27.02,24.62,36.32,0.04,-272.75,-272.75,-42,546,-941,21.2,0.9,-38.4,21.3,0.9,-38.1,5.73,2.49,-35.4,26.5
2013-01-03 00:05:00,0.0,1.9487,0.0010,405.35,0.25,-1.0,0.0,138.14,27.02,24.62,36.31,0.04,-272.75,-272.75,-42,546,-942,21.2,0.9,-38.4,21.3,0.9,-38.1,5.73,2.45,-35.4,26.5
2013-01-03 00:06:00,0.0,1.9492,0.0009,405.33,0.28,-1.0,0.0,138.14,27.02,24.62,36.31,0.04,-272.75,-272.74,-42,546,-941,21.2,0.8,-38.7,21.3,0.9,-38.3,5.73,2.40,-35.4,26.5
2013-01-03 00:07:00,0.0,1.9493,0.0011,405.45,0.25,-1.0,0.0,138.14,27.02,24.62,36.31,0.04,-272.75,-272.75,-42,546,-941,21.2,0.8,-38.7,21.3,0.9,-38.4,5.73,2.39,-35.4,26.5
2013-01-03 00:08:00,0.0,1.9491,0.0010,405.39,0.30,-1.0,0.0,138.14,27.02,24.62,36.31,0.04,-272.75,-272.76,-42,546,-941,21.2,0.8,-39.1,21.3,0.9,-38.5,5.73,2.44,-35.4,26.5
2013-01-03 00:09:00,0.0,1.9491,0.0009,405.33,0.27,-1.0,0.0,138.14,27.02,24.62,36.31,0.04,-272.75,-272.75,-42,546,-941,21.2,0.8,-39.0,21.3,0.8,-38.7,5.73,2.48,-35.3,26.5
2013-01-03 00:10:00,0.0,1.9488,0.0009,405.41,0.28,-1.0,0.0,138.14,27.02,24.62,36.31,0.04,-272.75,-272.75,-42,546,-941,21.2,0.8,-39.0,21.3,0.8,-38.7,5.73,2.49,-35.4,26.5
2013-01-03 00:11:00,0.0,1.9486,0.0009,405.38,0.32,-1.0,0.0,138.14,27.02,24.61,36.31,0.04,-272.76,-272.75,-42,546,-941,21.2,0.8,-39.0,21.3,0.8,-38.7,5.73,2.44,-35.3,26.5
2013-01-03 00:12:00,0.0,1.9482,0.0012,405.49,0.28,-1.0,0.0,138.14,27.01,24.62,36.31,0.04,-272.75,-272.74,-42,546,-942,21.2,0.8,-39.0,21.3,0.8,-38.6,5.73,2.40,-35.4,26.5
2013-01-03 00:13:00,0.0,1.9483,0.0007,405.37,0.29,-1.0,0.0,138.14,27.01,24.62,36.31,0.04,-272.75,-272.75,-42,546,-941,21.2,0.8,-39.1,21.3,0.8,-38.7,5.73,2.40,-35.3,26.5
2013-01-03 00:14:00,0.0,1.9484,0.0008,405.37,0.29,-1.0,0.0,138.14,27.01,24.62,36.31,0.04,-272.75,-272.76,-42,546,-941,21.2,0.8,-39.0,21.3,0.8,-38.7,5.73,2.45,-35.3,26.5
2013-01-03 00:15:00,0.0,1.9491,0.0009,405.40,0.30,-1.0,0.0,138.14,27.01,24.62,36.31,0.04,-272.75,-272.75,-42,546,-941,21.2,0.8,-39.1,21.3,0.8,-38.6,5.73,2.49,-35.3,26.5
2013-01-03 00:16:00,0.0,1.9496,0.0009,405.31,0.27,-1.0,0.0,138.14,27.01,24.62,36.31,0.04,-272.75,-272.75,-42,546,-941,21.2,0.8,-39.3,21.3,0.8,-38.7,5.73,2.48,-35.3,26.5
2013-01-03 00:17:00,0.0,1.9499,0.0009,405.33,0.26,-1.0,0.0,138.14,27.01,24.62,36.31,0.04,-272.75,-272.75,-42,546,-941,21.2,0.8,-39.3,21.3,0.8,-38.7,5.73,2.42,-35.3,26.5
2013-01-03 00:18:00,0.0,1.9489,0.0010,405.39,0.32,-1.0,0.0,138.14,27.01,24.62,36.31,0.04,-272.76,-272.76,-42,546,-941,21.2,0.8,-39.1,21.3,0.8,-38.7,5.73,2.39,-35.3,26.5
2013-01-03 00:19:00,0.0,1.9489,0.0010,405.38,0.27,-1.0,0.0,138.14,27.01,24.62,36.31,0.04,-272.75,-272.75,-42,546,-941,21.2,0.8,-39.1,21.3,0.8,-38.7,5.73,2.41,-35.3,26.5
2013-01-03 00:20:00,0.0,1.9493,0.0010,405.32,0.28,-1.0,0.0,138.14,27.01,24.62,36.31,0.04,-272.75,-272.75,-42,546,-941,21.2,0.8,-39.1,21.3,0.8,-38.7,5.73,2.46,-35.3,26.5
2013-01-03 00:21:00,0.0,1.9486,0.0011,405.37,0.24,-1.0,0.0,138.14,27.01,24.62,36.31,0.04,-272.75,-272.75,-42,546,-941,21.2,1.1,-36.4,21.3,1.1,-36.2,5.73,2.50,-35.3,26.5
2013-01-03 00:22:00,0.0,1.9480,0.0007,405.34,0.28,-1.0,0.0,138.14,27.01,24.62,36.31,0.04,-272.75,-272.75,-42,546,-941,21.2,1.1,-36.4,21.3,1.1,-35.8,5.73,2.46,-35.3,26.5
2013-01-03 00:23:00,0.0,1.9480,0.0011,405.38,0.25,-1.0,0.0,138.14,27.01,24.62,36.31,0.04,-272.75,-272.75,-42,546,-941,21.2,0.8,-38.7,21.3,0.9,-38.2,5.73,2.42,-35.3,26.5
2013-01-03 00:24:00,0.0,1.9486,0.0008,405.37,0.27,-1.0,0.0,138.14,27.00,24.62,36.31,0.04,-272.75,-272.75,-42,546,-941,21.2,0.8,-39.1,21.4,0.9,-38.5,5.73,2.39,-35.3,26.5
2013-01-03 00:25:00,0.0,1.9490,0.0010,405.43,0.26,-1.0,0.0,138.14,27.01,24.62,36.31,0.04,-272.75,-272.75,-42,546,-942,21.2,0.8,-39.3,21.3,0.8,-38.6,5.73,2.41,-35.3,26.5
2013-01-03 00:26:00,0.0,1.9493,0.0008,405.42,0.29,-1.0,0.0,138.14,27.01,24.62,36.31,0.04,-272.75,-272.75,-42,546,-941,21.2,0.8,-39.3,21.3,0.8,-38.7,5.73,2.47,-35.3,26.5
2013-01-03 00:27:00,0.0,1.9496,0.0011,405.56,0.29,-1.0,0.0,138.14,27.01,24.62,36.30,0.04,-272.74,-272.75,-42,546,-941,21.2,0.8,-39.3,21.3,0.8,-38.6,5.73,2.49,-35.3,26.5
2013-01-03 00:28:00,0.0,1.9506,0.0010,405.43,0.26,-1.0,0.0,138.14,27.00,24.62,36.31,0.04,-272.75,-272.76,-42,546,-941,21.2,0.8,-39.3,21.4,0.8,-38.6,5.73,2.46,-35.3,26.5
2013-01-03 00:29:00,0.0,1.9507,0.0008,405.44,0.24,-1.0,0.0,138.14,27.00,24.62,36.31,0.04,-272.75,-272.75,-42,546,-941,21.2,0.8,-39.2,21.4,0.8,-38.7,5.73,2.41,-35.3,26.5
2013-01-03 00:30:00,0.0,1.9506,0.0012,405.52,0.24,-1.0,0.0,138.14,27.00,24.62,36.31,0.04,-272.76,-272.75,-42,546,-941,21.2,0.8,-39.3,21.4,0.8,-38.7,5.73,2.39,-35.2,26.5
2013-01-03 00:31:00,0.0,1.9515,0.0008,405.48,0.33,-1.0,0.0,138.14,27.00,24.61,36.31,0.04,-272.75,-272.76,-42,546,-941,21.3,0.8,-39.1,21.4,0.8,-38.6,5.73,2.42,-35.3,26.5
2013-01-03 00:32:00,0.0,1.9516,0.0010,405.42,0.30,-1.0,0.0,138.14,27.00,24.62,36.32,0.04,-272.75,-272.75,-42,546,-941,21.2,0.8,-39.0,21.4,0.8,-38.7,5.73,2.47,-35.2,26.5
2013-01-03 00:33:00,0.0,1.9516,0.0008,405.49,0.28,-1.0,0.0,138.14,27.00,24.61,36.31,0.04,-272.74,-272.75,-42,546,-941,21.2,0.8,-39.0,21.4,0.9,-38.5,5.73,2.49,-35.2,26.5
2013-01-03 00:34:00,0.0,1.9505,0.0008,405.55,0.25,-1.0,0.0,138.14,27.00,24.62,36.31,0.04,-272.75,-272.75,-42,546,-941,21.2,0.8,-39.0,21.4,0.9,-38.3,5.73,2.46,-35.2,26.5
2013-01-03 00:35:00,0.0,1.9498,0.0009,405.53,0.29,-1.0,0.0,138.14,27.00,24.62,36.31,0.04,-272.75,-272.76,-42,547,-941,21.2,0.8,-39.0,21.4,0.9,-38.4,5.73,2.41,-35.2,26.5
2013-01-03 00:36:00,0.0,1.9494,0.0011,405.42,0.32,-1.0,0.0,138.14,27.00,24.62,36.31,0.04,-272.75,-272.75,-42,546,-941,21.3,0.8,-39.0,21.4,0.8,-38.6,5.73,2.39,-35.2,26.5
2013-01-03 00:37:00,0.0,1.9490,0.0009,405.49,0.27,-1.0,0.0,138.14,27.00,24.62,36.31,0.04,-272.74,-272.75,-42,546,-941,21.2,0.8,-39.3,21.4,0.8,-38.7,5.73,2.42,-35.2,26.5
2013-01-03 00:38:00,0.0,1.9488,0.0010,405.57,0.25,-1.0,0.0,138.14,26.99,24.62,36.31,0.04,-272.76,-272.75,-42,546,-941,21.3,0.8,-39.2,21.4,0.8,-38.6,5.73,2.47,-35.2,26.5
2013-01-03 00:39:00,0.0,1.9496,0.0010,405.53,0.26,-1.0,0.0,138.14,26.99,24.62,36.31,0.04,-272.75,-272.75,-42,546,-941,21.2,0.8,-39.3,21.4,0.8,-38.6,5.73,2.49,-35.2,26.5
2013-01-03 00:40:00,0.0,1.9502,0.0009,405.46,0.26,-1.0,0.0,138.14,26.99,24.62,36.31,0.04,-272.74,-272.76,-42,546,-941,21.3,0.8,-39.3,21.4,0.8,-38.6,5.73,2.46,-35.2,26.5
2013-01-03 00:41:00,0.0,1.9497,0.0008,405.40,0.31,-1.0,0.0,138.14,26.99,24.62,36.32,0.04,-272.75,-272.75,-42,546,-941,21.2,0.8,-39.3,21.4,0.8,-38.6,5.73,2.41,-35.2,26.5
2013-01-03 00:42:00,0.0,1.9503,0.0011,405.42,0.24,-1.0,0.0,138.14,26.99,24.62,36.31,0.04,-272.75,-272.75,-42,546,-941,21.2,0.8,-39.2,21.4,0.8,-38.6,5.73,2.39,-35.2,26.5
2013-01-03 00:43:00,0.0,1.9508,0.0009,405.44,0.28,-1.0,0.0,138.14,26.99,24.62,36.31,0.04,-272.75,-272.75,-42,547,-941,21.2,0.8,-39.2,21.4,0.8,-38.7,5.73,2.42,-35.2,26.5
2013-01-03 00:44:00,0.0,1.9512,0.0010,405.53,0.27,-1.0,0.0,138.14,27.00,24.62,36.31,0.04,-272.76,-272.75,-42,546,-941,21.2,0.8,-39.2,21.4,0.8,-38.6,5.73,2.47,-35.2,26.5
2013-01-03 00:45:00,0.0,1.9510,0.0010,405.46,0.30,-1.0,0.0,138.14,27.00,24.62,36.31,0.04,-272.75,-272.75,-42,546,-941,21.2,0.8,-39.2,21.4,0.8,-38.6,5.73,2.49,-35.2,26.5
2013-01-03 00:46:00,0.0,1.9515,0.0008,405.58,0.25,-1.0,0.0,138.14,27.00,24.62,36.31,0.04,-272.75,-272.75,-42,546,-941,21.2,0.8,-39.3,21.4,0.8,-38.6,5.73,2.46,-35.2,26.5
2013-01-03 00:47:00,0.0,1.9515,0.0009,405.63,0.29,-1.0,0.0,138.14,27.00,24.62,36.30,0.04,-272.75,-272.75,-42,546,-941,21.2,0.8,-39.2,21.4,0.8,-38.6,5.73,2.42,-35.2,26.5
2013-01-03 00:48:00,0.0,1.9510,0.0009,405.47,0.28,-1.0,0.0,138.14,27.00,24.62,36.31,0.04,-272.75,-272.75,-42,547,-941,21.2,0.8,-39.3,21.4,0.8,-38.6,5.73,2.39,-35.2,26.5
2013-01-03 00:49:00,0.0,1.9507,0.0010,405.43,0.24,-1.0,0.0,138.14,27.00,24.62,36.31,0.04,-272.75,-272.75,-42,547,-941,21.2,0.8,-39.2,21.4,0.8,-38.7,5.73,2.41,-35.2,26.5
2013-01-03 00:50:00,0.0,1.9507,0.0011,405.52,0.25,-1.0,0.0,138.14,27.00,24.62,36.31,0.04,-272.75,-272.75,-42,547,-941,21.2,0.8,-39.3,21.4,0.8,-38.6,5.73,2.46,-35.2,26.5
2013-01-03 00:51:00,0.0,1.9513,0.0009,405.43,0.25,-1.0,0.0,138.14,27.00,24.62,36.31,0.04,-272.75,-272.76,-42,546,-941,21.2,0.8,-39.2,21.4,0.8,-38.7,5.73,2.49,-35.2,26.5
2013-01-03 00:52:00,0.0,1.9513,0.0010,405.44,0.22,-1.0,0.0,138.14,27.00,24.62,36.31,0.04,-272.75,-272.76,-42,546,-941,21.2,0.8,-39.3,21.4,0.8,-38.6,5.73,2.47,-35.2,26.5
2013-01-03 00:53:00,0.0,1.9511,0.0010,405.57,0.26,-1.0,0.0,138.14,27.00,24.62,36.30,0.04,-272.75,-272.75,-42,547,-941,21.2,0.8,-39.2,21.4,0.8,-38.6,5.73,2.42,-35.2,26.5
2013-01-03 00:54:00,0.0,1.9513,0.0007,405.43,0.25,-1.0,0.0,138.14,26.99,24.62,36.31,0.04,-272.75,-272.75,-42,546,-941,21.2,0.8,-39.2,21.4,0.8,-38.7,5.73,2.40,-35.2,26.5
2013-01-03 00:55:00,0.0,1.9515,0.0009,405.52,0.27,-1.0,0.0,138.14,26.99,24.62,36.31,0.04,-272.75,-272.75,-42,547,-941,21.3,0.8,-39.3,21.4,0.8,-38.7,5.73,2.40,-35.1,26.5
2013-01-03 00:56:00,0.0,1.9510,0.0009,405.54,0.25,-1.0,0.0,138.14,26.99,24.62,36.31,0.04,-272.75,-272.75,-42,547,-941,21.2,0.8,-39.3,21.4,0.8,-38.6,5.73,2.45,-35.2,26.5
2013-01-03 00:57:00,0.0,1.9513,0.0011,405.59,0.27,-1.0,0.0,138.14,26.99,24.62,36.30,0.04,-272.75,-272.75,-42,547,-941,21.2,0.8,-39.3,21.4,0.8,-38.7,5.73,2.49,-35.1,26.5
2013-01-03 00:58:00,0.0,1.9509,0.0011,405.59,0.27,-1.0,0.0,138.14,26.99,24.62,36.30,0.04,-272.75,-272.75,-42,547,-941,21.2,0.8,-39.3,21.4,0.8,-38.6,5.73,2.48,-35.2,26.5
2013-01-03 00:59:00,0.0,1.9512,0.0011,405.53,0.24,-1.0,0.0,138.14,26.99,24.62,36.30,0.04,-272.75,-272.74,-42,546,-941,21.2,0.8,-39.2,21.4,0.8,-38.7,5.73,2.44,-35.1,26.5
2013-01-03 01:00:00,0.0,1.9517,0.0011,405.53,0.29,-1.0,0.0,138.14,26.99,24.62,36.30,0.04,-272.76,-272.75,-42,546,-941,21.3,0.8,-39.3,21.4,0.8,-38.6,5.73,2.40,-35.1,26.5
2013-01-03 01:01:00,0.0,1.9515,0.0010,405.48,0.28,-1.0,0.0,138.14,26.99,24.62,36.31,0.04,-272.75,-272.75,-42,547,-941,21.3,0.8,-39.3,21.4,0.8,-38.6,5.73,2.40,-35.1,26.5
2013-01-03 01:02:00,0.0,1.9520,0.0010,405.58,0.25,-1.0,0.0,138.14,26.99,24.62,36.31,0.04,-272.75,-272.76,-42,547,-941,21.2,0.8,-39.3,21.4,0.8,-38.6,5.73,2.43,-35.1,26.5
2013-01-03 01:03:00,0.0,1.9521,0.0011,405.42,0.29,-1.0,0.0,138.14,26.99,24.62,36.31,0.04,-272.74,-272.75,-42,547,-941,21.2,0.8,-39.4,21.4,0.8,-38.9,5.73,2.48,-35.1,26.5
2013-01-03 01:04:00,0.0,1.9519,0.0008,405.42,0.24,-1.0,0.0,138.14,26.99,24.62,36.31,0.04,-272.76,-272.75,-42,547,-941,21.3,0.8,-39.6,21.4,0.8,-38.9,5.73,2.49,-35.1,26.5
2013-01-03 01:05:00,0.0,1.9520,0.0010,405.53,0.26,-1.0,0.0,138.14,26.99,24.62,36.30,0.04,-272.75,-272.75,-42,547,-941,21.3,0.8,-39.4,21.4,0.8,-38.9,5.73,2.45,-35.1,26.5
2013-01-03 01:06:00,0.0,1.9526,0.0010,405.57,0.25,-1.0,0.0,138.14,26.99,24.62,36.31,0.04,-272.75,-272.75,-42,547,-941,21.3,0.8,-39.7,21.4,0.8,-39.0,5.73,2.41,-35.1,26.5
2013-01-03 01:07:00,0.0,1.9536,0.0008,405.53,0.28,-1.0,0.0,138.14,26.99,24.62,36.31,0.04,-272.74,-272.75,-42,546,-941,21.3,0.8,-39.7,21.4,0.8,-39.0,5.73,2.39,-35.1,26.5
2013-01-03 01:08:00,0.0,1.9548,0.0009,405.39,0.30,-1.0,0.0,138.14,26.99,24.62,36.31,0.04,-272.75,-272.75,-42,547,-941,21.3,0.8,-39.7,21.4,0.8,-38.9,5.73,2.42,-35.1,26.5
2013-01-03 01:09:00,0.0,1.9544,0.0008,405.39,0.24,-1.0,0.0,138.14,26.99,24.61,36.31,0.04,-272.75,-272.75,-42,547,-941,21.3,0.8,-39.6,21.4,0.8,-39.0,5.73,2.47,-35.1,26.5
2013-01-03 01:10:00,0.0,1.9526,0.0011,405.44,0.24,-1.0,0.0,138.14,26.99,24.62,36.31,0.04,-272.74,-272.75,-42,546,-941,21.3,0.8,-39.7,21.4,0.8,-39.0,5.73,2.49,-35.1,26.5
2013-01-03 01:11:00,0.0,1.9549,0.0009,405.40,0.28,-1.0,0.0,138.14,26.99,24.62,36.31,0.04,-272.75,-272.75,-42,547,-941,21.3,0.8,-39.7,21.4,0.8,-39.0,5.73,2.47,-35.1,26.5
2013-01-03 01:12:00,0.0,1.9550,0.0008,405.40,0.27,-1.0,0.0,138.14,26.99,24.62,36.31,0.04,-272.75,-272.75,-42,546,-941,21.3,0.8,-39.6,21.4,0.8,-39.0,5.73,2.43,-35.1,26.5
2013-01-03 01:13:00,0.0,1.9547,0.0009,405.39,0.22,-1.0,0.0,138.14,26.99,24.62,36.31,0.04,-272.75,-272.75,-42,547,-941,21.3,0.8,-39.7,21.4,0.8,-39.0,5.73,2.40,-35.1,26.5
2013-01-03 01:14:00,0.0,1.9554,0.0011,405.43,0.32,-1.0,0.0,138.14,26.99,24.62,36.31,0.04,-272.75,-272.75,-42,547,-941,21.2,0.8,-39.7,21.4,0.8,-38.9,5.73,2.40,-35.1,26.5
2013-01-03 01:15:00,0.0,1.9557,0.0007,405.37,0.32,-1.0,0.0,138.14,26.99,24.62,36.31,0.04,-272.75,-272.75,-42,547,-941,21.2,0.8,-39.7,21.4,0.8,-39.0,5.73,2.44,-35.1,26.5
2013-01-03 01:16:00,0.0,1.9558,0.0008,405.38,0.31,-1.0,0.0,138.14,26.99,24.62,36.32,0.04,-272.75,-272.75,-42,547,-941,21.2,0.8,-39.7,21.4,0.8,-39.0,5.73,2.48,-35.1,26.5
2013-01-03 01:17:00,0.0,1.9565,0.0011,405.44,0.24,-1.0,0.0,138.14,26.99,24.62,36.31,0.04,-272.75,-272.75,-42,547,-941,21.2,0.8,-39.8,21.4,0.8,-39.0,5.73,2.48,-35.1,26.5
2013-01-03 01:18:00,0.0,1.9560,0.0009,405.33,0.27,-1.0,0.0,138.14,26.99,24.62,36.31,0.04,-272.75,-272.76,-42,547,-941,21.2,0.8,-39.7,21.4,0.8,-39.0,5.73,2.45,-35.1,26.5
2013-01-03 01:19:00,0.0,1.9558,0.0009,405.39,0.28,-1.0,0.0,138.14,26.99,24.62,36.31,0.04,-272.75,-272.75,-42,547,-941,21.2,0.8,-39.6,21.4,0.8,-39.0,5.73,2.40,-35.1,26.5
2013-01-03 01:20:00,0.0,1.9555,0.0011,405.41,0.28,-1.0,0.0,138.14,26.99,24.62,36.31,0.04,-272.75,-272.75,-42,547,-941,21.2,0.8,-39.7,21.4,0.8,-39.0,5.73,2.39,-35.1,26.5
2013-01-03 01:21:00,0.0,1.9558,0.0009,405.39,0.24,-1.0,0.0,138.14,26.99,24.62,36.31,0.04,-272.75,-272.75,-42,547,-941,21.3,0.8,-39.7,21.4,0.8,-39.0,5.73,2.42,-35.1,26.5
2013-01-03 01:22:00,0.0,1.9547,0.0008,405.42,0.24,-1.0,0.0,138.14,26.99,24.62,36.32,0.04,-272.75,-272.75,-42,547,-941,21.3,0.8,-39.6,21.4,0.8,-39.0,5.73,2.46,-35.1,26.5
2013-01-03 01:23:00,0.0,1.9556,0.0011,405.42,0.24,-1.0,0.0,138.14,26.99,24.62,36.31,0.04,-272.75,-272.74,-42,547,-941,21.3,0.8,-39.5,21.4,0.8,-38.9,5.73,2.49,-35.1,26.5
2013-01-03 01:24:00,0.0,1.9553,0.0010,405.50,0.29,-1.0,0.0,138.14,26.99,24.62,36.31,0.04,-272.75,-272.75,-42,547,-941,21.2,0.8,-39.4,21.4,0.8,-38.9,5.73,2.47,-35.1,26.5
2013-01-03 01:25:00,0.0,1.9556,0.0009,405.48,0.24,-1.0,0.0,138.14,26.99,24.62,36.31,0.04,-272.75,-272.75,-42,547,-941,21.3,0.8,-39.3,21.4,0.8,-38.9,5.73,2.43,-35.1,26.5
2013-01-03 01:26:00,0.0,1.9563,0.0010,405.46,0.30,-1.0,0.0,138.14,26.99,24.62,36.31,0.04,-272.75,-272.75,-42,547,-941,21.3,0.8,-39.5,21.4,0.8,-39.0,5.73,2.40,-35.0,26.5
2013-01-03 01:27:00,0.0,1.9564,0.0010,405.39,0.30,-1.0,0.0,138.14,26.99,24.62,36.31,0.04,-272.74,-272.74,-42,547,-941,21.3,0.8,-39.4,21.4,0.8,-39.0,5.73,2.41,-35.0,26.5
2013-01-03 01:28:00,0.0,1.9549,0.0011,405.35,0.29,-1.0,0.0,138.14,26.99,24.62,36.32,0.04,-272.75,-272.75,-42,547,-941,21.3,0.8,-39.6,21.4,0.8,-39.0,5.73,2.44,-35.1,26.5
2013-01-03 01:29:00,0.0,1.9540,0.0012,405.37,0.29,-1.0,0.0,138.14,26.99,24.62,36.31,0.04,-272.75,-272.75,-42,547,-941,21.3,0.8,-39.6,21.4,0.8,-39.0,5.73,2.48,-35.0,26.5
2013-01-03 01:30:00,0.0,1.9558,0.0009,405.39,0.24,-1.0,0.0,138.14,26.99,24.62,36.31,0.04,-272.74,-272.74,-42,547,-941,21.2,0.8,-39.7,21.4,0.8,-39.0,5.73,2.48,-35.0,26.5
2013-01-03 01:31:00,0.0,1.9552,0.0010,405.37,0.30,-1.0,0.0,138.14,26.99,24.61,36.31,0.26,-271.00,-272.71,-42,547,-941,21.3,0.8,-39.6,21.4,0.8,-39.0,5.42,2.48,-38.6,26.5
2013-01-03 01:32:00,0.0,1.9549,0.0009,405.37,0.22,-1.0,0.0,138.14,26.99,24.62,36.32,0.04,-272.75,-272.75,-42,547,-941,21.3,0.8,-39.7,21.4,0.8,-38.9,5.73,2.41,-35.0,26.5
2013-01-03 01:33:00,0.0,1.9549,0.0009,405.39,0.28,-1.0,0.0,138.14,26.99,24.61,36.31,0.04,-272.75,-272.75,-42,547,-941,21.3,0.8,-39.7,21.4,0.8,-39.0,5.73,2.39,-35.0,26.5
2013-01-03 01:34:00,0.0,1.9546,0.0009,405.36,0.23,-1.0,0.0,138.14,26.99,24.61,36.31,0.04,-272.75,-272.76,-42,547,-941,21.3,0.8,-39.6,21.4,0.8,-39.0,5.73,2.42,-35.0,26.5
2013-01-03 01:35:00,0.0,1.9541,0.0007,405.40,0.29,-1.0,0.0,138.14,26.99,24.62,36.31,0.04,-272.76,-272.75,-42,547,-941,21.3,0.8,-39.6,21.4,0.8,-38.9,5.73,2.47,-35.0,26.6
2013-01-03 01:36:00,0.0,1.9533,0.0008,405.41,0.31,-1.0,0.0,138.14,26.99,24.62,36.31,0.04,-272.75,-272.75,-42,547,-941,21.3,0.8,-39.6,21.4,0.8,-39.0,5.73,2.49,-35.0,26.6
2013-01-03 01:37:00,0.0,1.9531,0.0008,405.36,0.28,-1.0,0.0,138.14,26.99,24.62,36.31,0.04,-272.75,-272.75,-42,547,-941,21.3,0.8,-39.7,21.4,0.8,-39.0,5.73,2.47,-35.0,26.5
2013-01-03 01:38:00,0.0,1.9534,0.0009,405.44,0.28,-1.0,0.0,138.14,26.99,24.61,36.31,0.04,-272.75,-272.75,-42,547,-941,21.3,0.8,-39.6,21.4,0.8,-39.0,5.73,2.43,-35.0,26.5
2013-01-03 01:39:00,0.0,1.9538,0.0010,405.45,0.27,-1.0,0.0,138.14,26.99,24.62,36.31,0.04,-272.75,-272.75,-42,547,-941,21.3,0.8,-39.7,21.4,0.8,-39.0,5.73,2.40,-35.0,26.5
2013-01-03 01:40:00,0.0,1.9536,0.0009,405.40,0.28,-1.0,0.0,138.14,26.99,24.62,36.31,0.04,-272.75,-272.75,-42,547,-941,21.3,0.8,-39.7,21.4,0.8,-39.0,5.73,2.40,-35.0,26.6
2013-01-03 01:41:00,0.0,1.9533,0.0010,405.44,0.25,-1.0,0.0,138.14,26.99,24.62,36.31,0.04,-272.75,-272.75,-42,547,-941,21.3,0.8,-39.5,21.4,0.8,-38.9,5.73,2.43,-35.0,26.6
2013-01-03 01:42:00,0.0,1.9529,0.0009,405.42,0.27,-1.0,0.0,138.14,26.99,24.62,36.31,0.04,-272.75,-272.75,-42,547,-941,21.3,0.8,-39.6,21.4,0.8,-39.0,5.73,2.48,-35.0,26.6
2013-01-03 01:43:00,0.0,1.9536,0.0010,405.40,0.26,-1.0,0.0,138.14,26.99,24.62,36.31,0.04,-272.75,-272.75,-42,547,-941,21.3,0.8,-39.4,21.4,0.8,-39.0,5.73,2.48,-35.0,26.5
2013-01-03 01:44:00,0.0,1.9542,0.0010,405.49,0.26,-1.0,0.0,138.14,26.99,24.61,36.31,0.04,-272.75,-272.76,-42,547,-941,21.3,0.8,-39.3,21.4,0.8,-38.8,5.73,2.46,-35.0,26.5
2013-01-03 01:45:00,0.0,1.9534,0.0009,405.56,0.25,-1.0,0.0,138.14,26.99,24.62,36.31,0.04,-272.75,-272.75,-42,547,-941,21.3,0.8,-39.4,21.4,0.8,-38.6,5.73,2.42,-35.0,26.5
2013-01-03 01:46:00,0.0,1.9534,0.0008,405.33,0.27,-1.0,0.0,138.14,26.99,24.62,36.32,0.04,-272.75,-272.75,-42,547,-941,21.3,0.8,-39.3,21.4,0.8,-38.7,5.73,2.40,-35.0,26.5
2013-01-03 01:47:00,0.0,1.9532,0.0011,405.46,0.26,-1.0,0.0,138.14,27.00,24.62,36.31,0.04,-272.75,-272.75,-42,547,-941,21.3,0.8,-39.3,21.4,0.8,-38.6,5.73,2.41,-35.0,26.6
2013-01-03 01:48:00,0.0,1.9534,0.0009,405.31,0.28,-1.0,0.0,138.14,27.00,24.62,36.32,0.04,-272.75,-272.76,-42,547,-941,21.3,0.8,-39.3,21.4,0.8,-38.7,5.73,2.44,-35.0,26.6
2013-01-03 01:49:00,0.0,1.9535,0.0009,405.48,0.26,-1.0,0.0,138.14,27.00,24.62,36.31,0.04,-272.75,-272.75,-42,547,-941,21.3,0.8,-39.3,21.4,0.8,-38.6,5.73,2.48,-35.0,26.6
2013-01-03 01:50:00,0.0,1.9538,0.0009,405.44,0.27,-1.0,0.0,138.14,27.00,24.62,36.31,0.04,-272.76,-272.75,-42,547,-941,21.3,0.8,-39.4,21.4,0.8,-38.6,5.73,2.48,-35.0,26.6
2013-01-03 01:51:00,0.0,1.9535,0.0010,405.37,0.25,-1.0,0.0,138.14,27.00,24.62,36.31,0.04,-272.75,-272.75,-42,547,-941,21.3,0.8,-39.4,21.4,0.8,-38.6,5.73,2.45,-35.0,26.6
2013-01-03 01:52:00,0.0,1.9546,0.0008,405.60,0.31,-1.0,0.0,138.14,27.00,24.61,36.31,0.04,-272.75,-272.75,-42,547,-941,21.3,0.8,-39.3,21.5,0.8,-38.6,5.73,2.41,-35.0,26.6
2013-01-03 01:53:00,0.0,1.9540,0.0008,405.44,0.24,-1.0,0.0,138.14,27.00,24.62,36.32,0.04,-272.75,-272.74,-42,547,-941,21.3,0.8,-39.2,21.4,0.8,-38.6,5.73,2.39,-35.0,26.6
2013-01-03 01:54:00,0.0,1.9535,0.0009,405.46,0.27,-1.0,0.0,138.14,27.00,24.62,36.31,0.04,-272.75,-272.74,-42,547,-941,21.3,0.8,-39.4,21.5,0.8,-38.7,5.73,2.42,-35.0,26.6
2013-01-03 01:55:00,0.0,1.9542,0.0009,405.45,0.24,-1.0,0.0,138.14,27.00,24.62,36.31,0.04,-272.75,-272.75,-42,547,-941,21.3,0.8,-39.3,21.5,0.8,-38.6,5.73,2.45,-35.0,26.6
2013-01-03 01:56:00,0.0,1.9544,0.0010,405.48,0.26,-1.0,0.0,138.14,27.00,24.62,36.31,0.04,-272.75,-272.75,-42,547,-941,21.3,0.8,-39.2,21.5,0.8,-38.6,5.73,2.48,-35.0,26.6
2013-01-03 01:57:00,0.0,1.9545,0.0008,405.61,0.31,-1.0,0.0,138.14,27.00,24.62,36.31,0.04,-272.74,-272.75,-42,547,-941,21.3,0.8,-39.1,21.5,0.8,-38.6,5.73,2.48,-35.0,26.5
2013-01-03 01:58:00,0.0,1.9546,0.0009,405.57,0.30,-1.0,0.0,138.14,27.00,24.62,36.31,0.04,-272.75,-272.75,-42,547,-941,21.3,0.8,-38.9,21.5,0.8,-38.6,5.73,2.44,-35.0,26.6
2013-01-03 01:59:00,0.0,1.9545,0.0010,405.56,0.27,-1.0,0.0,138.14,27.00,24.62,36.31,0.04,-272.75,-272.75,-42,547,-941,21.3,0.8,-39.0,21.4,0.9,-38.3,5.73,2.41,-35.0,26.5
2013-01-03 02:00:00,0.0,1.9554,0.0009,405.55,0.28,-1.0,0.0,138.14,27.00,24.61,36.31,0.04,-272.75,-272.75,-42,547,-941,21.3,0.8,-38.9,21.5,0.9,-38.4,5.73,2.40,-35.0,26.6
2013-01-03 02:01:00,0.0,1.9558,0.0009,405.48,0.28,-1.0,0.0,138.14,27.00,24.62,36.31,0.04,-272.75,-272.75,-43,547,-941,21.3,0.8,-39.0,21.5,0.9,-38.3,5.73,2.41,-35.0,26.5
2013-01-03 02:02:00,0.0,1.9559,0.0008,405.53,0.27,-1.0,0.0,138.14,27.01,24.62,36.31,0.04,-272.75,-272.75,-42,547,-941,21.3,0.8,-38.9,21.5,0.9,-38.3,5.73,2.45,-35.0,26.6
2013-01-03 02:03:00,0.0,1.9557,0.0010,405.51,0.30,-1.0,0.0,138.14,27.01,24.62,36.32,0.04,-272.75,-272.75,-42,547,-941,21.3,0.8,-39.0,21.5,0.9,-38.3,5.73,2.48,-35.0,26.6
2013-01-03 02:04:00,0.0,1.9561,0.0010,405.51,0.26,-1.0,0.0,138.14,27.01,24.62,36.31,0.04,-272.75,-272.76,-42,547,-941,21.3,0.8,-38.9,21.5,0.9,-38.3,5.73,2.48,-35.0,26.6
2013-01-03 02:05:00,0.0,1.9557,0.0009,405.59,0.24,-1.0,0.0,138.14,27.00,24.62,36.31,0.04,-272.75,-272.75,-42,547,-941,21.3,0.8,-38.9,21.5,0.9,-38.3,5.73,2.45,-35.0,26.6
2013-01-03 02:06:00,0.0,1.9556,0.0011,405.50,0.25,-1.0,0.0,138.14,27.00,24.62,36.31,0.04,-272.75,-272.75,-42,547,-941,21.3,0.8,-39.0,21.4,0.9,-38.3,5.73,2.42,-35.0,26.6
2013-01-03 02:07:00,0.0,1.9553,0.0010,405.45,0.28,-1.0,0.0,138.14,27.00,24.62,36.31,0.04,-272.75,-272.75,-42,547,-941,21.3,0.8,-39.0,21.5,0.9,-38.3,5.73,2.40,-35.0,26.5
2013-01-03 02:08:00,0.0,1.9549,0.0011,405.45,0.26,-1.0,0.0,138.14,27.01,24.62,36.31,0.04,-272.75,-272.75,-42,547,-941,21.3,0.8,-39.0,21.5,0.9,-38.3,5.73,2.41,-34.9,26.6
2013-01-03 02:09:00,0.0,1.9552,0.0007,405.53,0.23,-1.0,0.0,138.14,27.01,24.62,36.31,0.04,-272.75,-272.75,-42,547,-941,21.3,0.8,-39.0,21.5,0.9,-38.3,5.73,2.44,-35.0,26.6
2013-01-03 02:10:00,0.0,1.9550,0.0010,405.56,0.31,-1.0,0.0,138.14,27.01,24.62,36.31,0.04,-272.75,-272.76,-42,547,-941,21.3,0.8,-39.0,21.5,0.9,-38.3,5.73,2.48,-35.0,26.6
2013-01-03 02:11:00,0.0,1.9553,0.0011,405.45,0.25,-1.0,0.0,138.14,27.01,24.62,36.32,0.04,-272.75,-272.75,-42,547,-941,21.3,0.8,-39.0,21.5,0.9,-38.3,5.73,2.48,-34.9,26.6
2013-01-03 02:12:00,0.0,1.9550,0.0011,405.47,0.21,-1.0,0.0,138.14,27.01,24.62,36.32,0.04,-272.75,-272.75,-42,547,-941,21.3,0.8,-39.0,21.5,0.9,-38.3,5.73,2.45,-34.9,26.6
2013-01-03 02:13:00,0.0,1.9552,0.0009,405.61,0.32,-1.0,0.0,138.14,27.01,24.62,36.31,0.04,-272.75,-272.75,-42,547,-941,21.3,0.8,-39.0,21.5,0.9,-38.3,5.73,2.41,-34.9,26.6
2013-01-03 02:14:00,0.0,1.9544,0.0010,405.54,0.25,-1.0,0.0,138.14,27.01,24.62,36.31,0.04,-272.75,-272.74,-42,547,-941,21.3,0.8,-39.0,21.5,0.9,-38.3,5.73,2.40,-34.9,26.6
2013-01-03 02:15:00,0.0,1.9540,0.0010,405.52,0.30,-1.0,0.0,138.14,27.01,24.62,36.31,0.04,-272.74,-272.75,-42,547,-941,21.3,0.8,-39.0,21.5,0.9,-38.3,5.73,2.41,-34.9,26.6
2013-01-03 02:16:00,0.0,1.9538,0.0011,405.51,0.26,-1.0,0.0,138.14,27.01,24.62,36.31,0.04,-272.76,-272.76,-42,547,-941,21.3,0.8,-39.0,21.5,0.9,-38.3,5.73,2.44,-34.9,26.6
2013-01-03 02:17:00,0.0,1.9535,0.0009,405.64,0.24,-1.0,0.0,138.14,27.01,24.62,36.31,0.04,-272.74,-272.77,-42,547,-941,21.3,0.8,-39.0,21.5,0.9,-38.3,5.73,2.47,-34.9,26.6
2013-01-03 02:18:00,0.0,1.9536,0.0012,405.61,0.31,-1.0,0.0,138.14,27.01,24.62,36.31,0.04,-272.75,-272.73,-42,547,-941,21.3,0.8,-39.0,21.5,0.9,-38.3,5.73,2.48,-34.9,26.6